Terminal Aerodrome Forecast
Issued by NWS Duluth, MN

Home | Current Version | Previous Version | Text Only | Print | Product List | Glossary On
Versions: 1 2 3 4 5 6 7 8 9 10 11 12 13 14 15
000
FTUS43 KDLH 171720
TAFINL
TAF
KINL 171720Z 1718/1818 20010G17KT P6SM FEW200
     FM180000 19006KT P6SM SKC
     FM180300 20007KT P6SM SKC WS020/24035KT
     FM181000 20008KT P6SM FEW150 WS020/24045KT
     FM181300 23013G24KT P6SM SCT200=

USA.gov is the U.S. government's official web portal to all federal, state and local government web resources and services.